Weather History for KHWV - May, 2014

Change the Weather History Date:

Tuesday, May 13, 2014

  Actual Average (KISP) Record (KISP)
Temperature  
Mean Temperature 57 °F 58 °F  
Max Temperature 68 °F 67 °F 80 °F (2004)
Min Temperature 48 °F 49 °F 37 °F (2005)
Degree Days  
Heating Degree Days 8 8  
Month to date heating degree days 123  
Since 1 July heating degree days 5294  
Cooling Degree Days 0 0  
Month to date cooling degree days 0  
Year to date cooling degree days 2  
Growing Degree Days 7 (Base 50)    
Moisture  
Dew Point 46 °F    
Average Humidity 67    
Maximum Humidity 93    
Minimum Humidity 37    
Precipitation  
Precipitation 0.00 in 0.11 in 0.51 in (2002)
Month to date precipitation 1.50  
Year to date precipitation 17.18  
Snow  
Snow 0.00 in 0.00 in - ()
Month to date snowfall 0.0  
Since 1 July snowfall 24.8  
Snow Depth -    
Sea Level Pressure  
Sea Level Pressure 30.19 in    
Wind  
Wind Speed 5 mph (ESE)    
Max Wind Speed 10 mph    
Max Gust Speed 20 mph    
Visibility 9 miles    
Events      
T = Trace of Precipitation, MM = Missing Value Source: NWS Daily Summary

Daily Weather History Graph

Daily Weather History Graph

Search for Another Location

Airport or City:

Trip Planner

Search our weather history database for the weather conditions in past years. The results will help you decide how hot, cold, wet, or windy it might be!

Date:

Astronomy

May. 13, 2014 Rise Set
Actual Time 5:36 AM EDT 8:00 PM EDT
Civil Twilight 5:05 AM EDT 8:31 PM EDT
Nautical Twilight 4:26 AM EDT 9:09 PM EDT
Astronomical Twilight 3:44 AM EDT 9:52 PM EDT
Moon 6:58 PM EDT (5/13) 4:51 AM EDT (5/13)
Length of Visible Light 15h 25m
Length of Day
14h 23m
Waxing Gibbous, 98% of the Moon is Illuminated
May 13
Waxing Gibbous
May 14
Full
May 21
Last Quarter
May 28
New
Jun 5
First Quarter

Hourly Weather History & Observations

Time (EDT) Temp. Dew Point Humidity Pressure Visibility Wind Dir Wind Speed Gust Speed Precip Events Conditions
12:56 AM 61.0 °F 55.9 °F 83% 30.04 in 10.0 mi South 3.5 mph - 0.00 in   Partly Cloudy
2:56 AM 57.9 °F 55.9 °F 93% 30.03 in 8.0 mi Calm Calm - N/A   Clear
3:56 AM 57.0 °F 55.0 °F 93% 30.04 in 5.0 mi Calm Calm - N/A   Clear
4:17 AM 59.0 °F 55.9 °F 90% 30.08 in 6.0 mi NE 5.8 mph - N/A   Scattered Clouds
4:56 AM 61.0 °F 57.0 °F 87% 30.11 in 10.0 mi ENE 10.4 mph 19.6 mph N/A   Overcast
5:56 AM 57.0 °F 44.1 °F 62% 30.15 in 10.0 mi ENE 8.1 mph 17.3 mph N/A   Clear
6:56 AM 57.0 °F 44.1 °F 62% 30.16 in 10.0 mi Variable 5.8 mph - N/A   Clear
7:56 AM 59.0 °F 41.0 °F 51% 30.19 in 10.0 mi ENE 8.1 mph - N/A   Clear
12:56 PM 64.9 °F 41.0 °F 42% 30.22 in 10.0 mi East 8.1 mph 19.6 mph N/A   Clear
1:56 PM 66.0 °F 39.9 °F 38% 30.23 in 10.0 mi Variable 6.9 mph - N/A   Clear
2:56 PM 64.9 °F 37.9 °F 37% 30.25 in 10.0 mi SE 10.4 mph - N/A   Clear
3:56 PM 63.0 °F 41.0 °F 45% 30.24 in 10.0 mi SE 9.2 mph - N/A   Clear
4:56 PM 61.0 °F 43.0 °F 52% 30.25 in 10.0 mi SE 9.2 mph - N/A   Clear
5:56 PM 59.0 °F 41.0 °F 51% 30.26 in 10.0 mi Variable 6.9 mph - N/A   Clear
6:56 PM 54.0 °F 43.0 °F 66% 30.25 in 10.0 mi SE 8.1 mph - N/A   Clear
7:56 PM 51.1 °F 43.0 °F 74% 30.27 in 10.0 mi ESE 8.1 mph - N/A   Clear
9:56 PM 50.0 °F 43.0 °F 77% 30.30 in 10.0 mi Variable 4.6 mph - N/A   Clear
10:56 PM 48.9 °F 44.1 °F 83% 30.31 in 10.0 mi ESE 5.8 mph - N/A   Clear
11:56 PM 48.9 °F 44.1 °F 83% 30.31 in 10.0 mi Variable 3.5 mph - N/A   Partly Cloudy